SFAX EL-MAOU current weather conditions

sailwx.info

Air temperature 28.0° C
Dewpoint 21.0° C

Last reported at 2015-Jul-30 00:00 UTC.
Time now 2015-Jul-30 02:03 UTC

Location: N 34°43' E 010°41'.
View on Google Maps.

See reports from other nearby stations

  
Tides and Currents Weather Stations Pressure Air Temp Water Temp Dewpoint Dewpoint Depression Visibility Wind Speed Wind Dir Waves Ship Positions
date/time (UTC)wind fromknots sea level pressurealtimeterstation pressurevisibilityair tempwater tempwave heightnotes
2015-Jul-30 00:00 28.0
2015-Jul-29 23:00 130 2 28.0
2015-Jul-29 22:00 110 3 29.0
2015-Jul-29 21:00 120 5 29.0
2015-Jul-29 20:00 110 6 30.0
2015-Jul-29 19:00 120 7 30.0
2015-Jul-29 18:00 120 7 30.0
2015-Jul-29 17:00 110 9 32.0
2015-Jul-29 16:00 100 10 32.0
2015-Jul-29 15:00 140 9 33.0
2015-Jul-29 14:00 160 11 34.0
2015-Jul-29 13:00 180 10 35.0
2015-Jul-29 12:00 160 9 35.0
2015-Jul-29 11:00 160 10 34.0
2015-Jul-29 10:00 160 9 34.0
2015-Jul-29 09:00 34.0
2015-Jul-29 08:00 32.0
2015-Jul-29 06:00 320 3 27.0
2015-Jul-29 05:00 310 3 26.0
2015-Jul-29 02:00 340 3 27.0
2015-Jul-29 00:00 28.0
2015-Jul-28 23:00 160 1 28.0
2015-Jul-28 22:00 090 3 29.0
2015-Jul-28 21:00 080 6 29.0
2015-Jul-28 20:00 080 7 30.0
2015-Jul-28 18:00 090 8 31.0
2015-Jul-28 17:00 090 8 32.0
2015-Jul-28 16:00 100 10 33.0
2015-Jul-28 15:00 090 10 34.0
2015-Jul-28 14:00 110 11 33.0
2015-Jul-28 13:00 110 10 33.0
2015-Jul-28 12:00 100 9 33.0
2015-Jul-28 11:00 110 10 33.0
2015-Jul-28 10:00 110 6 34.0
2015-Jul-28 09:00 340 3 33.0
2015-Jul-28 08:00 33.0
2015-Jul-28 07:00 30.0
2015-Jul-28 06:00 27.0
2015-Jul-28 05:00 320 3 25.0
2015-Jul-28 04:00 330 2 25.0
2015-Jul-28 03:00 320 3 26.0
2015-Jul-28 02:00 280 3 27.0